Time,TemperatureF,DewpointF,PressureIn,WindDirection,WindDirectionDegrees,WindSpeedMPH,WindSpeedGustMPH,Humidity,HourlyPrecipIn,Conditions,Clouds,dailyrainin,SolarRadiationWatts/m^2,SoftwareType,DateUTC
2013-08-11 00:02:00,78.0,76.0,30.12,East,81,0.0,1.0,94,0.00,,,0.00,0,weatherlink.com 1.10,2013-08-11 04:02:00,
2013-08-11 00:18:00,78.0,76.0,30.12,East,90,0.0,1.0,94,0.00,,,0.00,0,weatherlink.com 1.10,2013-08-11 04:18:00,
2013-08-11 00:32:00,78.1,76.0,30.12,East,101,0.0,2.0,94,0.00,,,0.00,0,weatherlink.com 1.10,2013-08-11 04:32:00,
2013-08-11 00:48:00,77.9,76.0,30.12,East,101,0.0,1.0,94,0.00,,,0.00,0,weatherlink.com 1.10,2013-08-11 04:48:00,
2013-08-11 01:04:00,77.7,76.0,30.12,SE,129,0.0,2.0,94,0.00,,,0.00,0,weatherlink.com 1.10,2013-08-11 05:04:00,
2013-08-11 01:18:00,77.5,76.0,30.12,SSE,157,0.0,3.0,95,0.00,,,0.00,0,weatherlink.com 1.10,2013-08-11 05:18:00,
2013-08-11 01:34:00,77.3,76.0,30.12,SSE,153,0.0,1.0,95,0.00,,,0.00,0,weatherlink.com 1.10,2013-08-11 05:34:00,
2013-08-11 02:04:00,77.0,76.0,30.11,SE,146,0.0,2.0,96,0.00,,,0.00,0,weatherlink.com 1.10,2013-08-11 06:04:00,
2013-08-11 02:34:00,76.8,76.0,30.11,SE,138,0.0,2.0,96,0.00,,,0.00,0,weatherlink.com 1.10,2013-08-11 06:34:00,
2013-08-11 02:48:00,76.6,75.0,30.11,SSE,167,0.0,1.0,96,0.00,,,0.00,0,weatherlink.com 1.10,2013-08-11 06:48:00,
2013-08-11 03:04:00,76.5,75.0,30.11,SSE,167,0.0,1.0,96,0.00,,,0.00,0,weatherlink.com 1.10,2013-08-11 07:04:00,
2013-08-11 03:18:00,76.3,75.0,30.11,SSE,167,0.0,1.0,97,0.00,,,0.00,0,weatherlink.com 1.10,2013-08-11 07:18:00,
2013-08-11 03:34:00,76.3,75.0,30.11,SE,137,0.0,3.0,97,0.00,,,0.00,0,weatherlink.com 1.10,2013-08-11 07:34:00,
2013-08-11 04:04:00,76.1,75.0,30.11,SE,142,0.0,2.0,97,0.00,,,0.00,0,weatherlink.com 1.10,2013-08-11 08:04:00,
2013-08-11 04:19:00,76.0,75.0,30.11,SSE,149,0.0,2.0,97,0.00,,,0.00,0,weatherlink.com 1.10,2013-08-11 08:19:00,
2013-08-11 04:34:00,75.8,75.0,30.10,SSE,150,0.0,1.0,97,0.00,,,0.00,0,weatherlink.com 1.10,2013-08-11 08:34:00,
2013-08-11 04:49:00,75.8,75.0,30.11,South,182,1.0,1.0,97,0.00,,,0.00,0,weatherlink.com 1.10,2013-08-11 08:49:00,
2013-08-11 05:04:00,75.8,75.0,30.11,SSE,163,0.0,1.0,98,0.00,,,0.00,0,weatherlink.com 1.10,2013-08-11 09:04:00,
2013-08-11 05:19:00,75.6,75.0,30.11,South,171,0.0,2.0,97,0.00,,,0.00,0,weatherlink.com 1.10,2013-08-11 09:19:00,
2013-08-11 05:34:00,75.6,75.0,30.11,South,171,0.0,1.0,97,0.00,,,0.00,0,weatherlink.com 1.10,2013-08-11 09:34:00,
2013-08-11 05:49:00,75.4,75.0,30.11,South,171,0.0,0.0,97,0.00,,,0.00,0,weatherlink.com 1.10,2013-08-11 09:49:00,
2013-08-11 06:04:00,75.2,75.0,30.11,South,171,0.0,2.0,98,0.00,,,0.00,0,weatherlink.com 1.10,2013-08-11 10:04:00,
2013-08-11 06:19:00,75.2,75.0,30.11,SSE,163,0.0,1.0,98,0.00,,,0.00,0,weatherlink.com 1.10,2013-08-11 10:19:00,
2013-08-11 06:49:00,75.2,75.0,30.12,SSE,163,0.0,0.0,98,0.00,,,0.00,0,weatherlink.com 1.10,2013-08-11 10:49:00,
2013-08-11 07:04:00,75.0,74.0,30.12,SSE,163,0.0,0.0,98,0.00,,,0.00,12,weatherlink.com 1.10,2013-08-11 11:04:00,
2013-08-11 07:19:00,74.7,74.0,30.12,SSE,163,0.0,0.0,98,0.00,,,0.00,30,weatherlink.com 1.10,2013-08-11 11:19:00,
2013-08-11 08:20:00,77.6,77.0,30.14,South,186,1.0,6.0,97,0.00,,,0.00,197,weatherlink.com 1.10,2013-08-11 12:20:00,
2013-08-11 08:35:00,78.7,77.0,30.15,South,183,2.0,5.0,95,0.00,,,0.00,244,weatherlink.com 1.10,2013-08-11 12:35:00,
2013-08-11 08:50:00,79.9,77.0,30.15,SSW,194,5.0,5.0,92,0.00,,,0.00,311,weatherlink.com 1.10,2013-08-11 12:50:00,
2013-08-11 09:05:00,80.9,78.0,30.15,SSE,159,5.0,8.0,90,0.00,,,0.00,373,weatherlink.com 1.10,2013-08-11 13:05:00,
2013-08-11 09:20:00,81.8,78.0,30.15,SE,126,1.0,7.0,89,0.00,,,0.00,441,weatherlink.com 1.10,2013-08-11 13:20:00,
2013-08-11 09:35:00,82.7,79.0,30.15,South,188,2.0,7.0,87,0.00,,,0.00,397,weatherlink.com 1.10,2013-08-11 13:35:00,
2013-08-11 09:50:00,83.6,78.0,30.15,SW,229,5.0,7.0,82,0.00,,,0.00,163,weatherlink.com 1.10,2013-08-11 13:50:00,
2013-08-11 10:21:00,84.2,77.0,30.15,South,176,3.0,5.0,79,0.00,,,0.00,649,weatherlink.com 1.10,2013-08-11 14:21:00,
2013-08-11 10:36:00,85.4,77.0,30.15,SSE,155,3.0,6.0,75,0.00,,,0.00,682,weatherlink.com 1.10,2013-08-11 14:36:00,
2013-08-11 10:51:00,86.2,77.0,30.15,South,180,2.0,5.0,74,0.00,,,0.00,251,weatherlink.com 1.10,2013-08-11 14:51:00,
2013-08-11 11:06:00,86.6,77.0,30.15,West,264,4.0,6.0,73,0.00,,,0.00,517,weatherlink.com 1.10,2013-08-11 15:06:00,
2013-08-11 11:36:00,88.4,78.0,30.15,East,86,1.0,3.0,70,0.00,,,0.00,874,weatherlink.com 1.10,2013-08-11 15:36:00,
2013-08-11 12:06:00,88.6,78.0,30.14,WSW,238,5.0,7.0,70,0.00,,,0.00,911,weatherlink.com 1.10,2013-08-11 16:06:00,
2013-08-11 12:21:00,89.0,77.0,30.14,SW,221,1.0,7.0,68,0.00,,,0.00,947,weatherlink.com 1.10,2013-08-11 16:21:00,
2013-08-11 12:36:00,89.6,76.0,30.13,WSW,242,4.0,7.0,65,0.00,,,0.00,988,weatherlink.com 1.10,2013-08-11 16:36:00,
2013-08-11 13:07:00,90.8,76.0,30.13,SSE,149,3.0,7.0,63,0.00,,,0.00,1025,weatherlink.com 1.10,2013-08-11 17:07:00,
2013-08-11 13:22:00,91.4,76.0,30.12,SSE,162,1.0,4.0,60,0.00,,,0.00,399,weatherlink.com 1.10,2013-08-11 17:22:00,
2013-08-11 13:37:00,91.2,76.0,30.12,NNE,30,5.0,7.0,61,0.00,,,0.00,1058,weatherlink.com 1.10,2013-08-11 17:37:00,
2013-08-11 13:52:00,91.2,75.0,30.12,South,173,0.0,5.0,60,0.00,,,0.00,1114,weatherlink.com 1.10,2013-08-11 17:52:00,
2013-08-11 14:07:00,91.8,75.0,30.11,East,95,3.0,9.0,58,0.00,,,0.00,1030,weatherlink.com 1.10,2013-08-11 18:07:00,
2013-08-11 14:22:00,91.2,75.0,30.11,SSE,157,2.0,5.0,59,0.00,,,0.00,204,weatherlink.com 1.10,2013-08-11 18:22:00,
2013-08-11 14:37:00,91.9,73.0,30.10,WNW,282,0.0,5.0,55,0.00,,,0.00,984,weatherlink.com 1.10,2013-08-11 18:37:00,
2013-08-11 15:22:00,91.7,74.0,30.09,East,98,0.0,3.0,57,0.00,,,0.00,229,weatherlink.com 1.10,2013-08-11 19:22:00,
2013-08-11 15:54:00,93.0,74.0,30.08,SSE,148,0.0,4.0,55,0.00,,,0.00,851,weatherlink.com 1.10,2013-08-11 19:54:00,
2013-08-11 16:08:00,93.8,74.0,30.07,ESE,112,1.0,6.0,52,0.00,,,0.00,831,weatherlink.com 1.10,2013-08-11 20:08:00,
2013-08-11 16:24:00,94.3,73.0,30.07,ESE,111,2.0,4.0,51,0.00,,,0.00,763,weatherlink.com 1.10,2013-08-11 20:24:00,
2013-08-11 16:38:00,94.3,73.0,30.06,ENE,67,1.0,5.0,50,0.00,,,0.00,705,weatherlink.com 1.10,2013-08-11 20:38:00,
2013-08-11 16:54:00,94.0,72.0,30.05,South,184,0.0,4.0,49,0.00,,,0.00,650,weatherlink.com 1.10,2013-08-11 20:54:00,
2013-08-11 17:08:00,94.7,74.0,30.05,NE,47,0.0,3.0,51,0.00,,,0.00,621,weatherlink.com 1.10,2013-08-11 21:08:00,
2013-08-11 18:08:00,91.5,74.0,30.05,East,96,0.0,4.0,56,0.00,,,0.00,371,weatherlink.com 1.10,2013-08-11 22:08:00,
2013-08-11 18:24:00,92.7,72.0,30.05,ENE,77,0.0,4.0,51,0.00,,,0.00,311,weatherlink.com 1.10,2013-08-11 22:24:00,
2013-08-11 18:54:00,92.7,72.0,30.05,East,94,0.0,6.0,51,0.00,,,0.00,209,weatherlink.com 1.10,2013-08-11 22:54:00,
2013-08-11 19:08:00,92.2,73.0,30.05,SE,140,0.0,3.0,54,0.00,,,0.00,156,weatherlink.com 1.10,2013-08-11 23:08:00,
2013-08-11 19:24:00,90.5,76.0,30.05,ENE,67,0.0,6.0,62,0.00,,,0.00,97,weatherlink.com 1.10,2013-08-11 23:24:00,
2013-08-11 19:39:00,88.6,76.0,30.05,East,86,0.0,3.0,66,0.00,,,0.00,47,weatherlink.com 1.10,2013-08-11 23:39:00,
2013-08-11 19:54:00,87.1,74.0,30.06,ESE,106,1.0,6.0,66,0.00,,,0.00,19,weatherlink.com 1.10,2013-08-11 23:54:00,
2013-08-11 20:09:00,85.8,73.0,30.06,SSE,154,1.0,6.0,65,0.00,,,0.00,5,weatherlink.com 1.10,2013-08-12 00:09:00,
2013-08-11 20:24:00,84.7,72.0,30.07,ENE,62,0.0,3.0,66,0.00,,,0.00,0,weatherlink.com 1.10,2013-08-12 00:24:00,
2013-08-11 21:09:00,82.1,72.0,30.09,East,84,0.0,0.0,72,0.00,,,0.00,0,weatherlink.com 1.10,2013-08-12 01:09:00,
2013-08-11 21:24:00,81.2,72.0,30.09,East,84,0.0,0.0,74,0.00,,,0.00,0,weatherlink.com 1.10,2013-08-12 01:24:00,
2013-08-11 21:39:00,80.6,72.0,30.09,East,85,0.0,0.0,76,0.00,,,0.00,0,weatherlink.com 1.10,2013-08-12 01:39:00,
2013-08-11 21:54:00,80.0,72.0,30.10,East,85,0.0,0.0,77,0.00,,,0.00,0,weatherlink.com 1.10,2013-08-12 01:54:00,
2013-08-11 22:09:00,79.4,72.0,30.11,East,85,0.0,0.0,79,0.00,,,0.00,0,weatherlink.com 1.10,2013-08-12 02:09:00,
2013-08-11 22:24:00,78.9,72.0,30.11,East,85,0.0,0.0,80,0.00,,,0.00,0,weatherlink.com 1.10,2013-08-12 02:24:00,
2013-08-11 22:39:00,78.4,73.0,30.12,East,85,0.0,0.0,83,0.00,,,0.00,0,weatherlink.com 1.10,2013-08-12 02:39:00,
2013-08-11 23:09:00,78.1,73.0,30.12,East,86,0.0,0.0,85,0.00,,,0.00,0,weatherlink.com 1.10,2013-08-12 03:09:00,
2013-08-11 23:24:00,78.0,74.0,30.11,SSE,155,0.0,1.0,86,0.00,,,0.00,0,weatherlink.com 1.10,2013-08-12 03:24:00,
2013-08-11 23:39:00,77.9,74.0,30.11,SSE,155,0.0,1.0,87,0.00,,,0.00,0,weatherlink.com 1.10,2013-08-12 03:39:00,
2013-08-11 23:54:00,77.7,74.0,30.11,SSE,155,0.0,0.0,88,0.00,,,0.00,0,weatherlink.com 1.10,2013-08-12 03:54:00,